Tracking 30746 objects as of 19-Jun-2025
HD Live streaming from Space Station
objects crossing your sky now

COSMOS 1275 DEB

Track COSMOS 1275 DEB now!
10-day predictions


NORAD ID: 17637
Int'l Code: 1981-053LK
Perigee: 927.5 km
Apogee: 1,120.7 km
Inclination: 83.1 °
Period: 105.5 minutes
Semi major axis: 7395 km
RCS: 0.0105 m2 (small)
Launch date: June 4, 1981
Source: Commonwealth of Independent States (former USSR) (CIS)
Launch site: PLESETSK MISSILE AND SPACE COMPLEX (PKMTR)

Note: This is SATELLITE DEBRIS
Your satellite tracking list
Your tracking list is empty




NASA's NSSDC Master Catalog

Two Line Element Set (TLE):
1 17637U 81053LG  25169.44825655  .00001001  00000-0  11473-2 0  9993
2 17637  83.0696  65.5371 0130606 164.6540  10.0736 13.65169788986999
Source of the keplerian elements: AFSPC